[TLELIST] Archives

 

[TLELIST] Current TLEs

November 5th 2023 PDT

HST 1 20580U 90037B 23308.75708392 .00007079 00000-0 36227-3 0 9997 2 20580 28.4700 51.7672 0003155 101.7271 31.4035 15.14695494642780 ISS (ZARYA) 1 25544U 98067A 23309.54814200 .00019625 00000-0 34933-3 0 9999 2 25544 51.6445 348.3398 0000977 73.7821 77.5941 15.50134150423711 CXO 1 25867U 99040B 23310.74490464 .00000880 00000-0 00000-0 0 9993 2 25867 37.5751 178.5875 9040621 277.3455 0.1523 0.37815001 13712 ...Continue Reading

[TLELIST] Current TLEs

November 5th 2023 PDT

HST 1 20580U 90037B 23308.75708392 .00007079 00000-0 36227-3 0 9997 2 20580 28.4700 51.7672 0003155 101.7271 31.4035 15.14695494642780 ISS (ZARYA) 1 25544U 98067A 23309.54814200 .00019625 00000-0 34933-3 0 9999 2 25544 51.6445 348.3398 0000977 73.7821 77.5941 15.50134150423711 CXO 1 25867U 99040B 23310.74490464 .00000880 00000-0 00000-0 0 9993 2 25867 37.5751 178.5875 9040621 277.3455 0.1523 0.37815001 13712 ...Continue Reading

[TLELIST] Current TLEs

November 4th 2023 PDT

HST 1 20580U 90037B 23307.70482535 .00006967 00000-0 35656-3 0 9999 2 20580 28.4699 58.7840 0003111 91.4311 52.4360 15.14680501642623 ISS (ZARYA) 1 25544U 98067A 23308.38021311 .00022169 00000-0 39401-3 0 9995 2 25544 51.6449 354.1269 0001169 82.4196 27.1582 15.50095193423538 CXO 1 25867U 99040B 23310.74490464 .00000880 00000-0 00000+0 0 9992 2 25867 37.5751 178.5875 9040621 277.3455 0.1523 0.37815001 24871 ...Continue Reading

[TLELIST] Current TLEs

November 3rd 2023 PDT

HST 1 20580U 90037B 23306.77942491 .00006241 00000-0 31850-3 0 9994 2 20580 28.4697 64.9551 0003111 82.4287 45.3411 15.14667176642486 ISS (ZARYA) 1 25544U 98067A 23307.34722375 .00007633 00000-0 14140-3 0 9990 2 25544 51.6433 359.2481 0000683 39.1981 62.2194 15.50034869423378 CXO 1 25867U 99040B 23308.09860768 .00000840 00000-0 00000-0 0 9992 2 25867 37.5545 178.9438 9042195 277.0457 359.9147 0.37812199 13700 ...Continue Reading

[TLELIST] Current TLEs

November 3rd 2023 PDT

HST 1 20580U 90037B 23306.77942491 .00006241 00000-0 31850-3 0 9994 2 20580 28.4697 64.9551 0003111 82.4287 45.3411 15.14667176642486 ISS (ZARYA) 1 25544U 98067A 23307.34722375 .00007633 00000-0 14140-3 0 9990 2 25544 51.6433 359.2481 0000683 39.1981 62.2194 15.50034869423378 CXO 1 25867U 99040B 23308.09860768 .00000840 00000-0 00000-0 0 9992 2 25867 37.5545 178.9438 9042195 277.0457 359.9147 0.37812199 13700 ...Continue Reading

[TLELIST] [TLELIST] Current TLEs

November 3rd 2023 PDT

HST 1 20580U 90037B 23306.77942491 .00006241 00000-0 31850-3 0 9994 2 20580 28.4697 64.9551 0003111 82.4287 45.3411 15.14667176642486 ISS (ZARYA) 1 25544U 98067A 23307.34722375 .00007633 00000-0 14140-3 0 9990 2 25544 51.6433 359.2481 0000683 39.1981 62.2194 15.50034869423378 CXO 1 25867U 99040B 23308.09860768 .00000840 00000-0 00000-0 0 9992 2 25867 37.5545 178.9438 9042195 277.0457 359.9147 0.37812199 13700 ...Continue Reading

[TLELIST] Current TLEs

November 2nd 2023 PDT

HST 1 20580U 90037B 23305.79057581 .00005794 00000-0 29511-3 0 9995 2 20580 28.4695 71.5488 0003088 72.9943 52.0612 15.14654525642339 ISS (ZARYA) 1 25544U 98067A 23306.44342507 .00023588 00000-0 41988-3 0 9992 2 25544 51.6448 3.7234 0000980 73.9513 20.8531 15.50011514423230 CXO 1 25867U 99040B 23308.09860768 .00000840 00000-0 00000-0 0 9992 2 25867 37.5545 178.9438 9042195 277.0457 359.9147 0.37812199 13700 ...Continue Reading

[TLELIST] Current TLEs

November 1st 2023 PDT

HST 1 20580U 90037B 23304.80138049 .00005943 00000-0 30305-3 0 9994 2 20580 28.4692 78.1447 0003056 63.6283 56.8639 15.14643379642182 ISS (ZARYA) 1 25544U 98067A 23305.41180620 .00021684 00000-0 38744-3 0 9995 2 25544 51.6450 8.8360 0001085 75.1469 19.4675 15.49958906423078 CXO 1 25867U 99040B 23308.09860768 .00000840 00000-0 00000+0 0 9991 2 25867 37.5545 178.9438 9042195 277.0457 359.9147 0.37812199 24869 ...Continue Reading

[TLELIST] Current TLEs

October 31st 2023 PDT

HST 1 20580U 90037B 23304.08301971 .00006044 00000-0 30842-3 0 9999 2 20580 28.4689 82.9346 0003036 57.1969 98.4889 15.14635220642349 ISS (ZARYA) 1 25544U 98067A 23304.37776064 .00024073 00000-0 42978-3 0 9991 2 25544 51.6454 13.9572 0000962 84.8111 356.2587 15.49915139422915 CXO 1 25867U 99040B 23305.45457489 .00000772 00000-0 00000+0 0 9994 2 25867 37.5358 179.2850 9043063 276.7581 359.9996 0.37811789 24857 ...Continue Reading

[TLELIST] Current TLEs

October 30th 2023 PDT

HST 1 20580U 90037B 23302.82944160 .00006809 00000-0 34887-3 0 9994 2 20580 28.4684 91.2933 0003006 44.9867 101.7506 15.14620319641882 ISS (ZARYA) 1 25544U 98067A 23303.21001433 .00009405 00000-0 17347-3 0 9998 2 25544 51.6466 19.7392 0000580 58.2980 342.9216 15.49848495422738 CXO 1 25867U 99040B 23305.45457489 .00000772 00000-0 00000+0 0 9994 2 25867 37.5358 179.2850 9043063 276.7581 359.9996 0.37811789 24857 ...Continue Reading
  • This mailing list is a public mailing list - anyone may join or leave, at any time.
  • This mailing list is announce-only.

International Space Station (ISS) / Hubble Space Telescope (HST) / Chandra X-Ray Observatory Orbital Data via EMAIL

Privacy Policy:

Private list